| time (UTC) | temp F | wind direction | speed MPH | gust MPH | rain 1hr in | rain 24hr in | rain mn in | humidity % | barometer mb |
| 20260901103841 | 81 | 213 | 2.0 | 3.0 | 0.00 | 0.00 | 0.00 | 71 | 1016.8 |
| 20260901103340 | 81 | 213 | 2.0 | 3.0 | 0.00 | 0.00 | 0.00 | 71 | 1016.9 |
| 20260901102839 | 81 | 213 | 3.0 | 3.0 | 0.00 | 0.00 | 0.00 | 70 | 1016.8 |
| 20260901102339 | 81 | 213 | 1.0 | 4.0 | 0.00 | 0.00 | 0.00 | 70 | 1016.8 |
| 20260901101838 | 82 | 213 | 2.0 | 4.0 | 0.00 | 0.00 | 0.00 | 69 | 1016.8 |
| 20260901101337 | 82 | 213 | 3.0 | 4.0 | 0.00 | 0.00 | 0.00 | 69 | 1016.8 |
| 20260901100839 | 82 | 214 | 3.0 | 5.0 | 0.00 | 0.00 | 0.00 | 69 | 1016.8 |
| 20260901100338 | 82 | 215 | 3.0 | 5.0 | 0.00 | 0.00 | 0.00 | 68 | 1016.8 |
| 20260901095837 | 82 | 215 | 2.0 | 5.0 | 0.00 | 0.00 | 0.00 | 68 | 1016.7 |
| 20260901095337 | 82 | 215 | 2.0 | 5.0 | 0.00 | 0.00 | 0.00 | 68 | 1016.8 |
| 20260901094837 | 82 | 216 | 1.0 | 5.0 | 0.00 | 0.00 | 0.00 | 67 | 1016.8 |
| 20260901094336 | 83 | 216 | 1.0 | 5.0 | 0.00 | 0.00 | 0.00 | 67 | 1016.9 |
| 20260901093840 | 83 | 217 | 3.0 | 6.0 | 0.00 | 0.00 | 0.00 | 66 | 1016.9 |
| 20260901093336 | 83 | 215 | 4.0 | 6.0 | 0.00 | 0.00 | 0.00 | 66 | 1016.9 |
| 20260901092837 | 83 | 213 | 3.0 | 9.0 | 0.00 | 0.00 | 0.00 | 66 | 1017.0 |
| 20260901092335 | 83 | 32 | 2.0 | 9.0 | 0.00 | 0.00 | 0.00 | 65 | 1017.1 |
| 20260901091835 | 83 | 33 | 3.0 | 8.0 | 0.00 | 0.00 | 0.00 | 65 | 1017.0 |
| 20260901091335 | 83 | 32 | 4.0 | 9.0 | 0.00 | 0.00 | 0.00 | 65 | 1017.1 |
| 20260901090836 | 84 | 34 | 3.0 | 9.0 | 0.00 | 0.00 | 0.00 | 65 | 1017.1 |
| 20260901090334 | 84 | 31 | 5.0 | 11.0 | 0.00 | 0.00 | 0.00 | 64 | 1017.0 |
| 20260901085833 | 84 | 32 | 4.0 | 11.0 | 0.00 | 0.00 | 0.00 | 65 | 1017.0 |
| 20260901085334 | 84 | 34 | 3.0 | 13.0 | 0.00 | 0.00 | 0.00 | 64 | 1016.9 |
| 20260901084833 | 84 | 32 | 5.0 | 13.0 | 0.00 | 0.00 | 0.00 | 64 | 1016.8 |
| 20260901084334 | 84 | 37 | 4.0 | 10.0 | 0.00 | 0.00 | 0.00 | 64 | 1016.8 |
| 20260901083832 | 84 | 32 | 6.0 | 12.0 | 0.00 | 0.00 | 0.00 | 64 | 1016.9 |
| 20260901083332 | 84 | 33 | 4.0 | 12.0 | 0.00 | 0.00 | 0.00 | 64 | 1016.9 |
| 20260901082831 | 84 | 35 | 4.0 | 11.0 | 0.00 | 0.00 | 0.00 | 64 | 1016.9 |
| 20260901082336 | 84 | 31 | 2.0 | 9.0 | 0.00 | 0.00 | 0.00 | 64 | 1016.9 |
| 20260901081836 | 84 | 32 | 4.0 | 9.0 | 0.00 | 0.00 | 0.00 | 64 | 1016.8 |
| 20260901081332 | 84 | 31 | 3.0 | 8.0 | 0.00 | 0.00 | 0.00 | 63 | 1016.8 |
| 20260901080832 | 84 | 32 | 4.0 | 9.0 | 0.00 | 0.00 | 0.00 | 63 | 1016.8 |
| 20260901080331 | 84 | 34 | 5.0 | 9.0 | 0.00 | 0.00 | 0.00 | 63 | 1016.7 |
| 20260901075830 | 84 | 28 | 5.0 | 9.0 | 0.00 | 0.00 | 0.00 | 63 | 1016.8 |
| 20260901075337 | 83 | 28 | 4.0 | 9.0 | 0.00 | 0.00 | 0.00 | 63 | 1016.7 |
| 20260901074829 | 83 | 24 | 4.0 | 4.0 | 0.00 | 0.00 | 0.00 | 64 | 1016.7 |
| 20260901074332 | 82 | 24 | 2.0 | 7.0 | 0.00 | 0.00 | 0.00 | 65 | 1016.7 |
| 20260901073829 | 82 | 24 | 3.0 | 7.0 | 0.00 | 0.00 | 0.00 | 65 | 1016.6 |
| 20260901073329 | 81 | 22 | 1.0 | 4.0 | 0.00 | 0.00 | 0.00 | 66 | 1016.6 |
| 20260901072827 | 80 | 21 | 4.0 | 4.0 | 0.00 | 0.00 | 0.00 | 67 | 1016.6 |
| 20260901072328 | 80 | 22 | 3.0 | 0.0 | 0.00 | 0.00 | 0.00 | 70 | 1016.7 |
| 20260901071828 | 80 | 0 | 0.0 | 0.0 | 0.00 | 0.00 | 0.00 | 69 | 1016.5 |
| 20260901071329 | 80 | 0 | 0.0 | 0.0 | 0.00 | 0.00 | 0.00 | 68 | 1016.5 |
| 20260901070833 | 80 | 0 | 0.0 | 0.0 | 0.00 | 0.00 | 0.00 | 69 | 1016.5 |
| 20260901070327 | 80 | 0 | 0.0 | 0.0 | 0.00 | 0.00 | 0.00 | 69 | 1016.6 |
| 20260901065827 | 80 | 0 | 0.0 | 0.0 | 0.00 | 0.00 | 0.00 | 69 | 1016.5 |
| 20260901065327 | 80 | 0 | 0.0 | 0.0 | 0.00 | 0.00 | 0.00 | 69 | 1016.5 |
| 20260901064825 | 80 | 0 | 0.0 | 0.0 | 0.00 | 0.00 | 0.00 | 69 | 1016.4 |
| 20260901064326 | 80 | 0 | 0.0 | 0.0 | 0.00 | 0.00 | 0.00 | 69 | 1016.4 |
| 20260901063825 | 81 | 0 | 0.0 | 0.0 | 0.00 | 0.00 | 0.00 | 71 | 1016.4 |
| 20260901063325 | 80 | 0 | 0.0 | 0.0 | 0.00 | 0.00 | 0.00 | 67 | 1016.4 |
| 20260901062824 | 80 | 0 | 0.0 | 0.0 | 0.00 | 0.00 | 0.00 | 67 | 1016.3 |
| 20260901062325 | 80 | 0 | 0.0 | 0.0 | 0.00 | 0.00 | 0.00 | 67 | 1016.4 |
| 20260901061826 | 80 | 0 | 0.0 | 0.0 | 0.00 | 0.00 | 0.00 | 69 | 1016.3 |
| 20260901061323 | 80 | 0 | 0.0 | 0.0 | 0.00 | 0.00 | 0.00 | 68 | 1016.3 |
| 20260901060824 | 80 | 0 | 0.0 | 0.0 | 0.00 | 0.00 | 0.00 | 68 | 1016.3 |
| 20260901060323 | 80 | 0 | 0.0 | 0.0 | 0.00 | 0.00 | 0.00 | 68 | 1016.2 |
| 20260901055822 | 81 | 0 | 0.0 | 0.0 | 0.00 | 0.00 | 0.00 | 67 | 1016.1 |
| 20260901055323 | 81 | 0 | 0.0 | 0.0 | 0.00 | 0.00 | 0.00 | 68 | 1016.0 |
| 20260901054824 | 81 | 0 | 0.0 | 0.0 | 0.00 | 0.00 | 0.00 | 64 | 1016.1 |
| 20260901054323 | 81 | 0 | 0.0 | 0.0 | 0.00 | 0.00 | 0.00 | 67 | 1015.9 |
| 20260901053822 | 81 | 0 | 0.0 | 0.0 | 0.00 | 0.00 | 0.00 | 67 | 1016.0 |
| 20260901053322 | 81 | 0 | 0.0 | 0.0 | 0.00 | 0.00 | 0.00 | 66 | 1015.9 |
| 20260901052823 | 81 | 0 | 0.0 | 0.0 | 0.00 | 0.00 | 0.00 | 66 | 1015.8 |
| 20260901052321 | 81 | 0 | 0.0 | 0.0 | 0.00 | 0.00 | 0.00 | 65 | 1015.8 |
| 20260901051822 | 81 | 0 | 0.0 | 0.0 | 0.00 | 0.00 | 0.00 | 65 | 1015.8 |
| 20260901051322 | 81 | 0 | 0.0 | 0.0 | 0.00 | 0.00 | 0.00 | 65 | 1015.7 |
| 20260901050819 | 81 | 0 | 0.0 | 0.0 | 0.00 | 0.00 | 0.00 | 64 | 1015.6 |
| 20260901050320 | 81 | 0 | 0.0 | 0.0 | 0.00 | 0.00 | 0.00 | 64 | 1015.7 |
| 20260901045817 | 82 | 0 | 0.0 | 0.0 | 0.00 | 0.00 | 0.00 | 64 | 1015.6 |
| 20260901045319 | 82 | 0 | 0.0 | 0.0 | 0.00 | 0.00 | 0.00 | 64 | 1015.7 |
| 20260901044820 | 82 | 0 | 0.0 | 0.0 | 0.00 | 0.00 | 0.00 | 64 | 1015.6 |
| 20260901044318 | 82 | 0 | 0.0 | 0.0 | 0.00 | 0.00 | 0.00 | 63 | 1015.6 |
| 20260901043817 | 82 | 0 | 0.0 | 0.0 | 0.00 | 0.00 | 0.00 | 62 | 1015.6 |
| 20260901043318 | 82 | 0 | 0.0 | 0.0 | 0.00 | 0.00 | 0.00 | 63 | 1015.6 |
| 20260901042816 | 82 | 0 | 0.0 | 0.0 | 0.00 | 0.00 | 0.00 | 63 | 1015.6 |
| 20260901042318 | 82 | 0 | 0.0 | 0.0 | 0.00 | 0.00 | 0.00 | 62 | 1015.6 |
| 20260901041816 | 83 | 0 | 0.0 | 0.0 | 0.00 | 0.00 | 0.00 | 62 | 1015.6 |
| 20260901041316 | 83 | 0 | 0.0 | 0.0 | 0.00 | 0.00 | 0.00 | 61 | 1015.6 |
| 20260901040815 | 83 | 0 | 0.0 | 0.0 | 0.00 | 0.00 | 0.00 | 60 | 1015.6 |
| 20260901040315 | 83 | 0 | 0.0 | 0.0 | 0.00 | 0.00 | 0.00 | 60 | 1015.6 |
| 20260901035815 | 83 | 0 | 0.0 | 0.0 | 0.00 | 0.00 | 0.00 | 60 | 1015.7 |
| 20260901035316 | 84 | 0 | 0.0 | 0.0 | 0.00 | 0.00 | 0.00 | 60 | 1015.7 |
| 20260901034813 | 84 | 0 | 0.0 | 0.0 | 0.00 | 0.00 | 0.00 | 59 | 1015.6 |
| 20260901034314 | 84 | 0 | 0.0 | 0.0 | 0.00 | 0.00 | 0.00 | 59 | 1015.6 |
| 20260901033813 | 84 | 0 | 0.0 | 0.0 | 0.00 | 0.00 | 0.00 | 59 | 1015.7 |
| 20260901033313 | 84 | 0 | 0.0 | 0.0 | 0.00 | 0.00 | 0.00 | 59 | 1015.7 |
| 20260901032812 | 85 | 0 | 0.0 | 0.0 | 0.00 | 0.00 | 0.00 | 58 | 1015.7 |
| 20260901032313 | 85 | 0 | 0.0 | 0.0 | 0.00 | 0.00 | 0.00 | 58 | 1015.6 |
| 20260901031813 | 85 | 0 | 0.0 | 0.0 | 0.00 | 0.00 | 0.00 | 57 | 1015.6 |
| 20260901031312 | 86 | 0 | 0.0 | 0.0 | 0.00 | 0.00 | 0.00 | 56 | 1015.5 |
| 20260901030811 | 86 | 0 | 0.0 | 0.0 | 0.00 | 0.00 | 0.00 | 56 | 1015.7 |
| 20260901030311 | 86 | 0 | 0.0 | 0.0 | 0.00 | 0.00 | 0.00 | 56 | 1015.5 |
| 20260901025811 | 87 | 0 | 0.0 | 0.0 | 0.00 | 0.00 | 0.00 | 54 | 1015.5 |
| 20260901025311 | 87 | 0 | 0.0 | 0.0 | 0.00 | 0.00 | 0.00 | 53 | 1015.4 |
| 20260901024813 | 87 | 0 | 0.0 | 0.0 | 0.00 | 0.00 | 0.00 | 53 | 1015.3 |
| 20260901024313 | 87 | 0 | 0.0 | 0.0 | 0.00 | 0.00 | 0.00 | 52 | 1015.3 |
| 20260901023811 | 88 | 0 | 0.0 | 2.0 | 0.00 | 0.00 | 0.00 | 52 | 1015.3 |
| 20260901023311 | 88 | 0 | 0.0 | 3.0 | 0.00 | 0.00 | 0.00 | 51 | 1015.2 |
| 20260901022811 | 88 | 33 | 1.0 | 3.0 | 0.00 | 0.00 | 0.00 | 50 | 1015.1 |
| 20260901022312 | 89 | 0 | 0.0 | 3.0 | 0.00 | 0.00 | 0.00 | 50 | 1015.1 |
| 20260901021812 | 89 | 30 | 1.0 | 2.0 | 0.00 | 0.00 | 0.00 | 50 | 1015.0 |
| 20260901021313 | 89 | 32 | 1.0 | 2.0 | 0.00 | 0.00 | 0.00 | 49 | 1014.8 |
| 20260901020811 | 90 | 0 | 0.0 | 2.0 | 0.00 | 0.00 | 0.00 | 48 | 1014.8 |
| 20260901020311 | 90 | 36 | 1.0 | 2.0 | 0.00 | 0.00 | 0.00 | 48 | 1014.8 |
| 20260901015810 | 90 | 36 | 1.0 | 3.0 | 0.00 | 0.00 | 0.00 | 48 | 1014.7 |
| 20260901015312 | 91 | 35 | 1.0 | 3.0 | 0.00 | 0.00 | 0.00 | 47 | 1014.7 |
| 20260901014810 | 91 | 32 | 1.0 | 3.0 | 0.00 | 0.00 | 0.00 | 46 | 1014.6 |
| 20260901014313 | 91 | 36 | 2.0 | 3.0 | 0.00 | 0.00 | 0.00 | 46 | 1014.6 |
| 20260901013810 | 92 | 38 | 1.0 | 5.0 | 0.00 | 0.00 | 0.00 | 45 | 1014.5 |
| 20260901013312 | 92 | 42 | 1.0 | 5.0 | 0.00 | 0.00 | 0.00 | 44 | 1014.4 |
| 20260901012813 | 92 | 38 | 2.0 | 3.0 | 0.00 | 0.00 | 0.00 | 44 | 1014.5 |
| 20260901012310 | 93 | 52 | 2.0 | 4.0 | 0.00 | 0.00 | 0.00 | 43 | 1014.4 |
| 20260901011835 | 94 | 41 | 3.0 | 4.0 | 0.00 | 0.00 | 0.00 | 42 | 1014.3 |
| 20260901011335 | 94 | 49 | 1.0 | 4.0 | 0.00 | 0.00 | 0.00 | 41 | 1014.3 |
| 20260901010832 | 94 | 171 | 2.0 | 4.0 | 0.00 | 0.00 | 0.00 | 40 | 1014.2 |
| 20260901010334 | 94 | 180 | 2.0 | 7.0 | 0.00 | 0.00 | 0.00 | 40 | 1014.3 |
| 20260901005834 | 95 | 190 | 2.0 | 7.0 | 0.00 | 0.00 | 0.00 | 40 | 1014.2 |
| 20260901005335 | 95 | 177 | 2.0 | 8.0 | 0.00 | 0.00 | 0.00 | 39 | 1014.3 |
| 20260901004832 | 95 | 157 | 5.0 | 8.0 | 0.00 | 0.00 | 0.00 | 39 | 1014.3 |
| 20260901004333 | 95 | 152 | 2.0 | 10.0 | 0.00 | 0.00 | 0.00 | 39 | 1014.2 |
| 20260901003832 | 96 | 177 | 6.0 | 10.0 | 0.00 | 0.00 | 0.00 | 39 | 1014.3 |
| 20260901003332 | 96 | 219 | 5.0 | 9.0 | 0.00 | 0.00 | 0.00 | 39 | 1014.2 |
| 20260901002831 | 96 | 169 | 4.0 | 9.0 | 0.00 | 0.00 | 0.00 | 39 | 1014.3 |
| 20260901002332 | 96 | 179 | 4.0 | 9.0 | 0.00 | 0.00 | 0.00 | 39 | 1014.2 |
| 20260901001831 | 96 | 142 | 5.0 | 9.0 | 0.00 | 0.00 | 0.00 | 39 | 1014.2 |
| 20260901001331 | 96 | 137 | 5.0 | 10.0 | 0.00 | 0.00 | 0.00 | 39 | 1014.3 |
| 20260901000830 | 97 | 150 | 6.0 | 10.0 | 0.00 | 0.00 | 0.00 | 38 | 1014.3 |
| 20260901000331 | 97 | 147 | 4.0 | 14.0 | 0.00 | 0.00 | 0.00 | 38 | 1014.3 |
| 20260831235830 | 97 | 173 | 7.0 | 14.0 | 0.00 | 0.00 | 0.00 | 38 | 1014.4 |
| 20260831235332 | 97 | 156 | 8.0 | 13.0 | 0.00 | 0.00 | 0.00 | 37 | 1014.2 |
| 20260831234833 | 97 | 154 | 4.0 | 12.0 | 0.00 | 0.00 | 0.00 | 37 | 1014.2 |
| 20260831234329 | 98 | 157 | 7.0 | 16.0 | 0.00 | 0.00 | 0.00 | 38 | 1014.3 |
| 20260831233828 | 98 | 153 | 5.0 | 16.0 | 0.00 | 0.00 | 0.00 | 38 | 1014.4 |
| 20260831233330 | 98 | 58 | 5.0 | 8.0 | 0.00 | 0.00 | 0.00 | 38 | 1014.3 |
| 20260831232828 | 98 | 144 | 3.0 | 11.0 | 0.00 | 0.00 | 0.00 | 38 | 1014.4 |
| 20260831232328 | 98 | 161 | 5.0 | 11.0 | 0.00 | 0.00 | 0.00 | 37 | 1014.3 |
| 20260831231827 | 98 | 191 | 5.0 | 9.0 | 0.00 | 0.00 | 0.00 | 38 | 1014.3 |
| 20260831231328 | 98 | 133 | 5.0 | 9.0 | 0.00 | 0.00 | 0.00 | 37 | 1014.2 |
| 20260831230830 | 98 | 196 | 6.0 | 15.0 | 0.00 | 0.00 | 0.00 | 37 | 1014.2 |
| 20260831230325 | 98 | 161 | 4.0 | 15.0 | 0.00 | 0.00 | 0.00 | 36 | 1014.2 |
| 20260831225825 | 99 | 190 | 8.0 | 15.0 | 0.00 | 0.00 | 0.00 | 36 | 1014.2 |
| 20260831225326 | 99 | 155 | 6.0 | 12.0 | 0.00 | 0.00 | 0.00 | 37 | 1014.3 |
| 20260831224827 | 99 | 229 | 6.0 | 12.0 | 0.00 | 0.00 | 0.00 | 37 | 1014.3 |
| 20260831224325 | 99 | 216 | 4.0 | 11.0 | 0.00 | 0.00 | 0.00 | 37 | 1014.3 |
| 20260831223826 | 98 | 197 | 5.0 | 14.0 | 0.00 | 0.00 | 0.00 | 37 | 1014.4 |
| 20260831223325 | 98 | 243 | 6.0 | 14.0 | 0.00 | 0.00 | 0.00 | 37 | 1014.4 |
| 20260831222825 | 99 | 230 | 9.0 | 14.0 | 0.00 | 0.00 | 0.00 | 37 | 1014.5 |
| 20260831222325 | 99 | 200 | 9.0 | 14.0 | 0.00 | 0.00 | 0.00 | 37 | 1014.6 |
| 20260831221824 | 98 | 141 | 5.0 | 14.0 | 0.00 | 0.00 | 0.00 | 37 | 1014.6 |
| 20260831221323 | 99 | 205 | 7.0 | 13.0 | 0.00 | 0.00 | 0.00 | 37 | 1014.7 |
| 20260831220823 | 99 | 167 | 5.0 | 13.0 | 0.00 | 0.00 | 0.00 | 37 | 1014.6 |
| 20260831220323 | 99 | 192 | 7.0 | 13.0 | 0.00 | 0.00 | 0.00 | 37 | 1014.7 |
| 20260831215823 | 99 | 232 | 1.0 | 13.0 | 0.00 | 0.00 | 0.00 | 37 | 1014.8 |
| 20260831215324 | 99 | 161 | 11.0 | 12.0 | 0.00 | 0.00 | 0.00 | 37 | 1014.8 |
| 20260831214825 | 98 | 244 | 5.0 | 12.0 | 0.00 | 0.00 | 0.00 | 37 | 1014.8 |
| 20260831214323 | 98 | 182 | 4.0 | 11.0 | 0.00 | 0.00 | 0.00 | 38 | 1014.9 |
| 20260831213823 | 98 | 222 | 7.0 | 10.0 | 0.00 | 0.00 | 0.00 | 38 | 1015.0 |
| 20260831213323 | 98 | 212 | 8.0 | 9.0 | 0.00 | 0.00 | 0.00 | 38 | 1015.0 |
| 20260831212824 | 98 | 178 | 7.0 | 15.0 | 0.00 | 0.00 | 0.00 | 38 | 1015.0 |
| 20260831212323 | 98 | 186 | 5.0 | 15.0 | 0.00 | 0.00 | 0.00 | 39 | 1015.0 |
| 20260831211820 | 97 | 148 | 6.0 | 15.0 | 0.00 | 0.00 | 0.00 | 38 | 1015.1 |
| 20260831211320 | 97 | 115 | 8.0 | 15.0 | 0.00 | 0.00 | 0.00 | 38 | 1015.2 |
| 20260831210821 | 97 | 202 | 8.0 | 15.0 | 0.00 | 0.00 | 0.00 | 39 | 1015.2 |
| 20260831210319 | 98 | 206 | 6.0 | 14.0 | 0.00 | 0.00 | 0.00 | 39 | 1015.2 |
| 20260831205821 | 98 | 178 | 5.0 | 14.0 | 0.00 | 0.00 | 0.00 | 39 | 1015.3 |
| 20260831205319 | 98 | 215 | 8.0 | 14.0 | 0.00 | 0.00 | 0.00 | 39 | 1015.5 |
| 20260831204819 | 98 | 178 | 5.0 | 16.0 | 0.00 | 0.00 | 0.00 | 40 | 1015.5 |
| 20260831204319 | 98 | 148 | 6.0 | 19.0 | 0.00 | 0.00 | 0.00 | 39 | 1015.7 |
| 20260831203820 | 98 | 159 | 5.0 | 19.0 | 0.00 | 0.00 | 0.00 | 40 | 1015.7 |
| 20260831203323 | 98 | 199 | 7.0 | 12.0 | 0.00 | 0.00 | 0.00 | 41 | 1015.7 |
| 20260831202820 | 97 | 152 | 3.0 | 14.0 | 0.00 | 0.00 | 0.00 | 39 | 1015.8 |
| 20260831202318 | 97 | 179 | 3.0 | 17.0 | 0.00 | 0.00 | 0.00 | 40 | 1015.9 |
| 20260831201817 | 97 | 167 | 11.0 | 17.0 | 0.00 | 0.00 | 0.00 | 38 | 1016.0 |
| 20260831201317 | 97 | 184 | 9.0 | 17.0 | 0.00 | 0.00 | 0.00 | 38 | 1016.1 |
| 20260831200817 | 97 | 201 | 8.0 | 15.0 | 0.00 | 0.00 | 0.00 | 40 | 1016.1 |
| 20260831200316 | 98 | 158 | 10.0 | 18.0 | 0.00 | 0.00 | 0.00 | 39 | 1016.2 |
| 20260831195815 | 97 | 173 | 8.0 | 18.0 | 0.00 | 0.00 | 0.00 | 40 | 1016.2 |
| 20260831195316 | 97 | 152 | 7.0 | 13.0 | 0.00 | 0.00 | 0.00 | 40 | 1016.1 |
| 20260831194815 | 97 | 182 | 4.0 | 13.0 | 0.00 | 0.00 | 0.00 | 39 | 1016.2 |
| 20260831194314 | 97 | 128 | 5.0 | 16.0 | 0.00 | 0.00 | 0.00 | 40 | 1016.3 |
| 20260831193815 | 96 | 208 | 8.0 | 16.0 | 0.00 | 0.00 | 0.00 | 41 | 1016.5 |
| 20260831193314 | 96 | 129 | 11.0 | 16.0 | 0.00 | 0.00 | 0.00 | 41 | 1016.5 |
| 20260831192818 | 97 | 162 | 7.0 | 16.0 | 0.00 | 0.00 | 0.00 | 42 | 1016.6 |
| 20260831192316 | 97 | 120 | 3.0 | 14.0 | 0.00 | 0.00 | 0.00 | 41 | 1016.7 |
| 20260831191815 | 97 | 182 | 5.0 | 15.0 | 0.00 | 0.00 | 0.00 | 40 | 1016.6 |
| 20260831191315 | 97 | 196 | 3.0 | 15.0 | 0.00 | 0.00 | 0.00 | 41 | 1016.7 |
| 20260831190820 | 97 | 196 | 9.0 | 14.0 | 0.00 | 0.00 | 0.00 | 42 | 1016.7 |
| 20260831190315 | 97 | 198 | 9.0 | 14.0 | 0.00 | 0.00 | 0.00 | 42 | 1016.7 |
| 20260831185815 | 97 | 165 | 9.0 | 17.0 | 0.00 | 0.00 | 0.00 | 42 | 1016.8 |
| 20260831185314 | 97 | 146 | 9.0 | 17.0 | 0.00 | 0.00 | 0.00 | 41 | 1016.7 |
| 20260831184812 | 97 | 119 | 15.0 | 14.0 | 0.00 | 0.00 | 0.00 | 42 | 1016.8 |
| 20260831184313 | 96 | 164 | 7.0 | 13.0 | 0.00 | 0.00 | 0.00 | 43 | 1016.7 |
| 20260831183816 | 96 | 155 | 4.0 | 12.0 | 0.00 | 0.00 | 0.00 | 41 | 1016.9 |
| 20260831183315 | 95 | 177 | 4.0 | 13.0 | 0.00 | 0.00 | 0.00 | 45 | 1017.0 |
| 20260831182813 | 95 | 178 | 5.0 | 13.0 | 0.00 | 0.00 | 0.00 | 44 | 1017.1 |
| 20260831182314 | 96 | 167 | 5.0 | 14.0 | 0.00 | 0.00 | 0.00 | 44 | 1017.1 |
| 20260831181815 | 95 | 130 | 10.0 | 19.0 | 0.00 | 0.00 | 0.00 | 45 | 1017.2 |
| 20260831181312 | 95 | 192 | 9.0 | 19.0 | 0.00 | 0.00 | 0.00 | 44 | 1017.3 |
| 20260831180814 | 95 | 145 | 8.0 | 16.0 | 0.00 | 0.00 | 0.00 | 45 | 1017.4 |
| 20260831180311 | 95 | 110 | 13.0 | 16.0 | 0.00 | 0.00 | 0.00 | 45 | 1017.4 |
| 20260831175812 | 95 | 192 | 8.0 | 15.0 | 0.00 | 0.00 | 0.00 | 46 | 1017.4 |
| 20260831175311 | 95 | 209 | 4.0 | 15.0 | 0.00 | 0.00 | 0.00 | 46 | 1017.6 |
| 20260831174813 | 94 | 188 | 4.0 | 14.0 | 0.00 | 0.00 | 0.00 | 46 | 1017.7 |
| 20260831174313 | 94 | 191 | 6.0 | 14.0 | 0.00 | 0.00 | 0.00 | 46 | 1017.7 |
| 20260831173813 | 94 | 187 | 8.0 | 18.0 | 0.00 | 0.00 | 0.00 | 45 | 1017.9 |
| 20260831173312 | 94 | 205 | 5.0 | 19.0 | 0.00 | 0.00 | 0.00 | 46 | 1017.9 |
| 20260831172810 | 94 | 136 | 15.0 | 19.0 | 0.00 | 0.00 | 0.00 | 46 | 1017.9 |
| 20260831172313 | 94 | 134 | 13.0 | 18.0 | 0.00 | 0.00 | 0.00 | 47 | 1017.9 |
| 20260831171816 | 94 | 151 | 8.0 | 13.0 | 0.00 | 0.00 | 0.00 | 47 | 1018.0 |
| 20260831171312 | 94 | 132 | 5.0 | 11.0 | 0.00 | 0.00 | 0.00 | 47 | 1018.1 |
| 20260831170812 | 94 | 117 | 4.0 | 11.0 | 0.00 | 0.00 | 0.00 | 46 | 1018.0 |
| 20260831170314 | 94 | 161 | 4.0 | 12.0 | 0.00 | 0.00 | 0.00 | 47 | 1018.1 |
| 20260831165813 | 94 | 207 | 9.0 | 12.0 | 0.00 | 0.00 | 0.00 | 48 | 1018.2 |
| 20260831165312 | 93 | 150 | 4.0 | 12.0 | 0.00 | 0.00 | 0.00 | 47 | 1018.1 |
| 20260831164813 | 93 | 187 | 5.0 | 12.0 | 0.00 | 0.00 | 0.00 | 48 | 1018.1 |
| 20260831164314 | 93 | 223 | 4.0 | 12.0 | 0.00 | 0.00 | 0.00 | 49 | 1018.1 |
| 20260831163814 | 93 | 238 | 8.0 | 12.0 | 0.00 | 0.00 | 0.00 | 48 | 1018.1 |
| 20260831163315 | 92 | 200 | 4.0 | 12.0 | 0.00 | 0.00 | 0.00 | 48 | 1018.2 |
| 20260831162813 | 93 | 176 | 4.0 | 14.0 | 0.00 | 0.00 | 0.00 | 50 | 1018.2 |
| 20260831162314 | 92 | 205 | 2.0 | 14.0 | 0.00 | 0.00 | 0.00 | 50 | 1018.3 |
| 20260831161813 | 92 | 157 | 6.0 | 13.0 | 0.00 | 0.00 | 0.00 | 50 | 1018.3 |
| 20260831161312 | 91 | 246 | 4.0 | 11.0 | 0.00 | 0.00 | 0.00 | 50 | 1018.4 |
| 20260831160815 | 91 | 190 | 3.0 | 12.0 | 0.00 | 0.00 | 0.00 | 50 | 1018.4 |
| 20260831160314 | 91 | 260 | 6.0 | 12.0 | 0.00 | 0.00 | 0.00 | 51 | 1018.4 |
| 20260831155811 | 91 | 207 | 7.0 | 14.0 | 0.00 | 0.00 | 0.00 | 52 | 1018.4 |
| 20260831155314 | 91 | 205 | 3.0 | 14.0 | 0.00 | 0.00 | 0.00 | 52 | 1018.4 |
| 20260831154813 | 90 | 261 | 4.0 | 13.0 | 0.00 | 0.00 | 0.00 | 52 | 1018.4 |
| 20260831154315 | 90 | 196 | 7.0 | 15.0 | 0.00 | 0.00 | 0.00 | 52 | 1018.3 |
| 20260831153814 | 89 | 216 | 3.0 | 15.0 | 0.00 | 0.00 | 0.00 | 52 | 1018.3 |
| 20260831153316 | 89 | 242 | 6.0 | 13.0 | 0.00 | 0.00 | 0.00 | 51 | 1018.3 |
| 20260831152815 | 89 | 207 | 8.0 | 13.0 | 0.00 | 0.00 | 0.00 | 52 | 1018.3 |
| 20260831152313 | 89 | 240 | 3.0 | 13.0 | 0.00 | 0.00 | 0.00 | 55 | 1018.2 |
| 20260831151816 | 88 | 223 | 10.0 | 15.0 | 0.00 | 0.00 | 0.00 | 55 | 1018.2 |
| 20260831151314 | 88 | 217 | 8.0 | 15.0 | 0.00 | 0.00 | 0.00 | 55 | 1018.1 |
| 20260831150813 | 88 | 215 | 8.0 | 14.0 | 0.00 | 0.00 | 0.00 | 56 | 1018.1 |
| 20260831150315 | 88 | 142 | 2.0 | 13.0 | 0.00 | 0.00 | 0.00 | 58 | 1018.1 |
| 20260831145813 | 88 | 254 | 10.0 | 13.0 | 0.00 | 0.00 | 0.00 | 57 | 1018.1 |
| 20260831145315 | 87 | 246 | 4.0 | 11.0 | 0.00 | 0.00 | 0.00 | 60 | 1018.0 |
| 20260831144814 | 87 | 225 | 5.0 | 11.0 | 0.00 | 0.00 | 0.00 | 60 | 1018.1 |
| 20260831144315 | 87 | 199 | 4.0 | 10.0 | 0.00 | 0.00 | 0.00 | 62 | 1018.1 |
| 20260831143814 | 86 | 190 | 3.0 | 11.0 | 0.00 | 0.00 | 0.00 | 62 | 1018.0 |
| 20260831143316 | 86 | 234 | 4.0 | 11.0 | 0.00 | 0.00 | 0.00 | 63 | 1018.0 |
| 20260831142813 | 85 | 168 | 4.0 | 11.0 | 0.00 | 0.00 | 0.00 | 65 | 1018.2 |
| 20260831142314 | 85 | 194 | 7.0 | 9.0 | 0.00 | 0.00 | 0.00 | 66 | 1018.2 |
| 20260831141815 | 85 | 217 | 3.0 | 10.0 | 0.00 | 0.00 | 0.00 | 67 | 1018.1 |
| 20260831141315 | 85 | 229 | 5.0 | 10.0 | 0.00 | 0.00 | 0.00 | 67 | 1018.1 |
| 20260831140812 | 84 | 194 | 6.0 | 11.0 | 0.00 | 0.00 | 0.00 | 67 | 1018.0 |
| 20260831140315 | 84 | 217 | 5.0 | 11.0 | 0.00 | 0.00 | 0.00 | 67 | 1018.1 |
| 20260831135747 | 84 | 194 | 7.0 | 11.0 | 0.00 | 0.00 | 0.00 | 69 | 1018.2 |
| 20260831135321 | 83 | 183 | 2.0 | 11.0 | 0.00 | 0.00 | 0.00 | 68 | 1017.8 |
| 20260831134759 | 83 | 155 | 7.0 | 10.0 | 0.00 | 0.00 | 0.00 | 69 | 1017.8 |
| 20260831134344 | 83 | 227 | 3.0 | 14.0 | 0.00 | 0.00 | 0.00 | 70 | 1017.7 |
| 20260831133826 | 83 | 225 | 5.0 | 14.0 | 0.00 | 0.00 | 0.00 | 70 | 1017.6 |
| 20260831133316 | 82 | 213 | 7.0 | 13.0 | 0.00 | 0.00 | 0.00 | 70 | 1017.5 |
| 20260831132748 | 82 | 234 | 3.0 | 10.0 | 0.00 | 0.00 | 0.00 | 71 | 1017.4 |
| 20260831132329 | 82 | 203 | 4.0 | 10.0 | 0.00 | 0.00 | 0.00 | 72 | 1017.4 |
| 20260831131815 | 82 | 235 | 4.0 | 10.0 | 0.00 | 0.00 | 0.00 | 72 | 1017.4 |
| 20260831131255 | 81 | 223 | 3.0 | 10.0 | 0.00 | 0.00 | 0.00 | 72 | 1017.3 |
| 20260831130845 | 81 | 225 | 3.0 | 8.0 | 0.00 | 0.00 | 0.00 | 73 | 1017.2 |
| 20260831130333 | 81 | 248 | 2.0 | 8.0 | 0.00 | 0.00 | 0.00 | 73 | 1017.2 |
| 20260831125816 | 80 | 173 | 3.0 | 7.0 | 0.00 | 0.00 | 0.00 | 74 | 1017.1 |
| 20260831125258 | 80 | 182 | 2.0 | 7.0 | 0.00 | 0.00 | 0.00 | 74 | 1017.1 |
| 20260831124749 | 80 | 155 | 3.0 | 7.0 | 0.00 | 0.00 | 0.00 | 74 | 1017.0 |
| 20260831124343 | 80 | 40 | 1.0 | 7.0 | 0.00 | 0.00 | 0.00 | 75 | 1016.8 |
| 20260831123832 | 80 | 175 | 3.0 | 7.0 | 0.00 | 0.00 | 0.00 | 75 | 1016.8 |
| 20260831123324 | 79 | 195 | 2.0 | 7.0 | 0.00 | 0.00 | 0.00 | 75 | 1016.8 |
| 20260831122813 | 79 | 181 | 3.0 | 4.0 | 0.00 | 0.00 | 0.00 | 75 | 1016.7 |
| 20260831122314 | 79 | 187 | 2.0 | 4.0 | 0.00 | 0.00 | 0.00 | 75 | 1016.6 |
| 20260831121806 | 79 | 189 | 2.0 | 4.0 | 0.00 | 0.00 | 0.00 | 75 | 1016.6 |
| 20260831121305 | 79 | 184 | 2.0 | 4.0 | 0.00 | 0.00 | 0.00 | 75 | 1016.4 |
| 20260831120806 | 79 | 185 | 3.0 | 4.0 | 0.00 | 0.00 | 0.00 | 74 | 1016.5 |
| 20260831120313 | 79 | 189 | 1.0 | 4.0 | 0.00 | 0.00 | 0.00 | 74 | 1016.4 |
| 20260831115814 | 80 | 195 | 3.0 | 4.0 | 0.00 | 0.00 | 0.00 | 74 | 1016.4 |
| 20260831115306 | 80 | 192 | 2.0 | 4.0 | 0.00 | 0.00 | 0.00 | 73 | 1016.4 |
| 20260831114807 | 80 | 201 | 2.0 | 3.0 | 0.00 | 0.00 | 0.00 | 73 | 1016.4 |
| 20260831114304 | 80 | 203 | 2.0 | 3.0 | 0.00 | 0.00 | 0.00 | 72 | 1016.4 |
| 20260831113804 | 81 | 204 | 2.0 | 4.0 | 0.00 | 0.00 | 0.00 | 72 | 1016.3 |
| 20260831113304 | 81 | 205 | 1.0 | 4.0 | 0.00 | 0.00 | 0.00 | 71 | 1016.2 |
| 20260831112802 | 81 | 206 | 1.0 | 6.0 | 0.00 | 0.00 | 0.00 | 71 | 1016.1 |
| 20260831112307 | 81 | 207 | 4.0 | 6.0 | 0.00 | 0.00 | 0.00 | 71 | 1016.2 |
| 20260831111805 | 81 | 206 | 2.0 | 6.0 | 0.00 | 0.00 | 0.00 | 70 | 1016.2 |
| 20260831111309 | 81 | 207 | 3.0 | 7.0 | 0.00 | 0.00 | 0.00 | 70 | 1016.1 |
| 20260831110803 | 81 | 209 | 2.0 | 7.0 | 0.00 | 0.00 | 0.00 | 70 | 1015.9 |
| 20260831110305 | 82 | 217 | 3.0 | 7.0 | 0.00 | 0.00 | 0.00 | 70 | 1015.9 |
| 20260831105802 | 82 | 195 | 5.0 | 6.0 | 0.00 | 0.00 | 0.00 | 70 | 1015.9 |
| 20260831105306 | 82 | 192 | 3.0 | 6.0 | 0.00 | 0.00 | 0.00 | 70 | 1015.8 |
| 20260831104804 | 82 | 209 | 2.0 | 6.0 | 0.00 | 0.00 | 0.00 | 69 | 1015.9 |
| 20260831104300 | 82 | 205 | 3.0 | 7.0 | 0.00 | 0.00 | 0.00 | 69 | 1015.8 |